Location: Emory University Observatory
(33.7903°N, 84.3267°W)
Time: 10:11:58
(UTC-04:00)

Envisat - Pass Details

Date: 12 October 2017
Orbit: 764 x 766 km, 98.2° (Epoch: 20 October)

Event Time Altitude Azimuth Distance (km) Brightness Sun altitude
Exits shadow 21:33:57 26° 350° (N) 1,468 4.6 -31.3°
Drops below altitude 10° 21:36:08 10° 349° (N) 2,305 5.7 -31.7°
Sets 21:38:26 0° 349° (N) 3,235 6.5 -32.2°
